Location: San Gennaro Vesuviano
(40.8833°N, 14.5333°E)
Time: 21:59:03
(UTC+00:00)

CARTOSAT-1 - Pass Details

Date: 22 April 2021
Orbit: 615 x 619 km, 97.8° (Epoch: 10 May)

Event Time Altitude Azimuth Distance (km) Brightness Sun altitude
Exits shadow 20:33:28 59° 346° (NNW) 716 4.0 -26.8°
Drops below altitude 10° 20:37:00 10° 348° (NNW) 1,989 6.9 -27.2°
Sets 20:39:12 0° 348° (NNW) 2,899 7.9 -27.5°
